Regional Weather Roundup
Issued by NWS

Home | Current Version | Previous Version | Text Only | Print | Product List | Glossary Off
Versions: 1 2 3 4 5 6 7 8 9 10 11 12 13 14 15 16 17 18 19 20 21 22 23 24 25 26 27 28 29 30 31 32 33 34 35 36 37 38 39 40 41 42 43 44 45 46 47 48 49 50

000
ASUS43 KMPX 240901
RWRMN
WEATHER ROUNDUP FOR MINNESOTA
NATIONAL WEATHER SERVICE TWIN CITIES/CHANHASSEN MN
300 AM CST FRI FEB 24 2017


NOTE: "FAIR" INDICATES FEW OR NO CLOUDS BELOW 12,000 FEET WITH NO
SIGNIFICANT WEATHER AND/OR OBSTRUCTIONS TO VISIBILITY. N/A MEANS
CURRENT SKY AND/OR WEATHER CONDITIONS ARE NOT AVAILABLE.

MNZ060>063-068>070-241000-
   Twin Cities Metro

CITY           SKY/WX    TMP DP  RH WIND       PRES   REMARKS
TWIN CITIES    CLOUDY    28  17  63 N18G25    29.85R WCI  15
ST PAUL        CLOUDY    29  20  69 N9        29.86S WCI  20
CRYSTAL        CLOUDY    27  14  58 N14G28    29.85S WCI  16
BLAINE         CLOUDY    28  18  64 NE17G24   29.86R WCI  16
LAKEVILLE      CLOUDY    28  21  74 N13G21    29.82S WCI  18
EDEN PRAIRIE   CLOUDY    28  17  63 N14G25    29.84R WCI  17
SOUTH ST PAUL  CLOUDY    30  19  65 N8G20     29.84R WCI  22
LAKE ELMO      CLOUDY    30  21  69 N13G18    29.85R WCI  20
$$
MNZ001>005-007-008-013>017-022>024-027-028-241000-
   Northwest Minnesota

CITY           SKY/WX    TMP DP  RH WIND       PRES   REMARKS
BEMIDJI        CLOUDY    11   6  79 N8        30.04F WCI   0
HALLOCK        CLEAR     12   9  85 CALM      30.17S
ROSEAU         CLEAR      7   1  78 NW5       30.13F WCI  -2
WARROAD        CLEAR      7   1  78 NW6       30.12S WCI  -3
THIEF RVR FALL CLEAR     12   6  77 N9        30.12F WCI   0
CROOKSTON      CLEAR     18  10  73 NE9       30.14S WCI   6
FOSSTON        PTCLDY    10   7  85 N12       30.07F WCI  -4
DETROIT LAKES  PTCLDY    18  10  73 N9G18     30.02F WCI   6
MOORHEAD       CLOUDY    19  10  68 N17       30.08F WCI   4
PARK RAPIDS    CLOUDY    15   5  64 N13       29.99F WCI   1
MAHNOMEN       FAIR      15   7  70 NE15G21   30.05F WCI   0
$$
MNZ006-009>011-018-025>026-241000-
   North Central Minnesota

CITY           SKY/WX    TMP DP  RH WIND       PRES   REMARKS
BAUDETTE       CLEAR      7   2  80 N7        30.08F WCI  -5
FLAG ISLAND    CLEAR      7   3  85 NW8       30.11F WCI  -6
INTL FALLS     CLOUDY    12   3  67 N5        30.06S WCI   4
WASKISH        CLOUDY    10   7  85 N5        30.07F WCI   2
BIG FORK       CLOUDY    12   7  79 CALM      30.03S
LONGVILLE      CLOUDY    14   9  79 N7        30.00F WCI   4
GRAND RAPIDS   CLOUDY    15   9  76 N9        30.01F WCI   3
CRANE LAKE     CLOUDY    12   7  79 N7        30.06F WCI   2
ORR            CLOUDY    12   5  73 CALM      29.99F
COOK           CLOUDY    14   9  79 N3        30.01F
WALKER         FAIR      13   6  74 N9        30.00F WCI   1
$$
MNZ012-019>021-037-241000-
   Northeast Minnesota

CITY           SKY/WX    TMP DP  RH WIND       PRES   REMARKS
DULUTH         CLOUDY    19  13  77 N9        29.93F WCI   8
ELY            CLOUDY    14   7  73 N5        29.98F WCI   6
HIBBING        CLOUDY    15   9  76 N9        29.98S WCI   3
EVELETH        CLOUDY    17   7  62 N7        29.99F WCI   8
DULUTH HARBOR  CLOUDY    25  18  74 N21       29.98F WCI  10
TWO HARBORS    PTCLDY    23  16  74 N7        29.95F WCI  15
SILVER BAY     CLOUDY    19  10  68 N10       29.96F WCI   8
GRAND MARAIS     N/A     20   6  55 NE8       30.03R WCI  10
G MARAIS ARPRT CLOUDY    10   1  67 N14       29.93F WCI  -5
$$
MNZ029>031-032-039>041-046>048-054>057-064-241000-
   West Central Minnesota

CITY           SKY/WX    TMP DP  RH WIND       PRES   REMARKS
FERGUS FALLS   PTCLDY    18   9  68 NE15      30.06F WCI   3
WHEATON        PTCLDY    19  12  73 N17G24    30.03S WCI   4
MORRIS         CLOUDY    21  16  79 N18G25    29.96S WCI   6
ALEXANDRIA     CLOUDY    20  11  68 NE20G29   29.94F WCI   4
ELBOW LAKE     FAIR      19  12  73 E17G25    29.99S WCI   4
WADENA         MOCLDY    16  10  79 N15       29.98F WCI   1
GLENWOOD       CLOUDY    19  16  86 N15G28    29.93S WCI   5
APPLETON       CLOUDY    25  18  74 N22G28    29.95R WCI  10
BENSON         PTCLDY    25  12  58 NE22G29   29.95S WCI  10
ORTONVILLE     MOCLDY    21  16  79 N23       29.97S WCI   5
MADISON        CLOUDY    27  19  74 N24       29.96R WCI  12
WILLMAR        FAIR      25  18  74 NE22G32   29.91R WCI  10
$$
MNZ033>034-036-042>043-049>051-058-059-241000-
   Central Minnesota

CITY           SKY/WX    TMP DP  RH WIND       PRES   REMARKS
ST CLOUD       CLOUDY    22  14  71 N17G26    29.91F WCI   8
SAUK CENTRE    FAIR      20  11  67 N21G26    29.93F WCI   5
PAYNESVILLE    CLOUDY    23  14  70 N21G31    29.91R WCI   8
AITKIN         CLOUDY    19  10  68 N12       29.95F WCI   7
PINE RIVER     CLOUDY    16  10  79 N13       30.01F WCI   2
BRAINERD       CLOUDY    18  10  71 N16       29.96F WCI   3
STAPLES        MOCLDY    18   9  68 N8G17     29.97F WCI   7
LONG PRAIRIE   FAIR      19  10  68 NW18G26   29.94F WCI   4
LITTLE FALLS   CLOUDY    21  12  68 N8        29.95F WCI  12
LITCHFIELD     CLOUDY    25  18  74 N17G26    29.90R WCI  11
BUFFALO        CLOUDY    25  16  67 N15       29.89R WCI  13
MAPLE LAKE     CLOUDY    26  18  73 N15G22    29.90R WCI  13
HUTCHINSON     CLOUDY    27  19  72 N14G22    29.87R WCI  15
$$
MNZ037-044-045-052-053-241000-
   East Central Minnesota

CITY           SKY/WX    TMP DP  RH WIND       PRES   REMARKS
PRINCETON      CLOUDY    25  16  68 N15       29.90F WCI  12
MORA           CLOUDY    21  14  73 N6        29.92F WCI  14
CAMBRIDGE      CLOUDY    27  16  63 N10G22    29.88S WCI  17
RUSH CITY      CLOUDY    23  16  74 N14G23    29.90F WCI  11
MOOSE LAKE     MOCLDY    21  14  73 N13       29.91F WCI   9
HINCKLEY       FAIR      23  18  80 N15       29.91F WCI  10
CLOQUET        CLOUDY    19  12  73 N9        29.93F WCI   9
MCGREGOR       CLOUDY    19  14  79 N12       29.96F WCI   7
$$
MNZ071>073-080-081-089-090-097-098-241000-
   Southwest Minnesota

CITY           SKY/WX    TMP DP  RH WIND       PRES   REMARKS
MONTEVIDEO     CLOUDY    25  19  80 NE17G25   29.94R WCI  11
GRANITE FALLS  CLOUDY    28  20  71 N13G24    29.91F WCI  18
CANBY          CLOUDY    26  20  80 N18G26    29.94S WCI  12
MARSHALL       CLOUDY    26  19  74 N20G29    29.89R WCI  12
REDWOOD FALLS  CLOUDY    27  16  63 NE13G22   29.88R WCI  16
OLIVIA         MOCLDY    28  19  69 N20       29.87S WCI  15
PIPESTONE      CLOUDY    27  19  74 NE20G30   29.82R WCI  13
WINDOM         CLOUDY    27  21  80 N20       29.80F WCI  13
WORTHINGTON    LGT SNOW  25  22  88 N21G30    29.77F FOG     WCI  11
JACKSON        LGT SNOW  27  23  86 NE26      29.76F VSB 3/4 WCI  11
TRACY          CLOUDY    27  21  77 N22G30    29.85S WCI  13
SLAYTON        CLOUDY    24  20  85 N18G28    29.82R WCI  10
$$
MNZ065>067-074>077-082>085-091>093-241000-
   South Central Minnesota

CITY           SKY/WX    TMP DP  RH WIND       PRES   REMARKS
MANKATO        FLURRIES  27  22  81 NE15      29.84R WCI  15
NEW ULM        CLOUDY    27  18  69 NE18G24   29.85R WCI  13
ST JAMES       CLOUDY    27  21  80 N17       29.84S WCI  14
FAIRMONT       SNOW      26  25  96 N18G25    29.78F VSB 1/2 WCI  13
GLENCOE        CLOUDY    28  22  77 N12G21    29.86R WCI  18
FARIBAULT      LGT SNOW  27  27 100 N9        29.82R WCI  17
OWATONNA       CLOUDY    27  25  93 N13       29.80R WCI  16
WASECA         CLOUDY    28  27  93 N15       29.83R WCI  17
ALBERT LEA     HVY SNOW  28  28 100 N18G24    29.76R VSB 1/4 WCI  16
$$
MNZ078>079-086>088-094>096-241000-
   Southeast Minnesota

CITY           SKY/WX    TMP DP  RH WIND       PRES   REMARKS
ROCHESTER      FOG       28  27  96 N20       29.72R VSB 1/4 WCI  15
RED WING       LGT SNOW  28  27  93 NE7       29.79F VSB 3/4 WCI  21
STANTON        LGT SNOW  29  26  89 N22       29.78F VSB 1   WCI  16
DODGE CENTER   SNOW      27  27 100 N16G24    29.76R WCI  14
WINONA         LGT SNOW  32  30  93 NE8G16    29.72F WCI  25
AUSTIN         CLOUDY    28  27  93 N13G21    29.75R WCI  18
PRESTON        CLOUDY    30  28  94 N14G21    29.68R THUNDER WCI  19
$$
ABBREVIATIONS USED IN REMARKS
   TC - TEMPERATURES IN CELSIUS
  WCI - WIND CHILL INDEX
   HX - HEAT INDEX
  VSB - VISIBILITY
$$




USA.gov is the U.S. government's official web portal to all federal, state and local government web resources and services.